User: anonymous   Login
Location: Unspecified
(0.0000°N, 0.0000°E)
Time: 09:25:25
(UTC+00:00)
Language:

SJ-6A - Orbit

View from above orbital plane
View from above orbital plane
View from above satellite
View from above satellite

Ground track
Ground track

The orbit data is extracted from the following two-line orbital elements,

1 28413U 04035A   18018.51580640 -.00000159 +00000-0 -93145-5 0  9991
2 28413 097.8096 035.5065 0017551 028.2525 331.9668 14.94272825727439
Epoch (UTC): 18 January 2018 12:22:45
Eccentricity: 0.0017551
inclination: 97.8096°
perigee height: 572 km
apogee height: 597 km
right ascension of ascending node: 35.5065°
argument of perigee: 28.2525°
revolutions per day: 14.94272825
mean anomaly at epoch: 331.9668°
orbit number at epoch: 72743

The dashed part of the orbit path shows where the satellite is in the earth's shadow,  

DLR